Location: D�pe
(52.6057°N, 8.1808°E)
Time: 01:56:29
(UTC+00:00)

USA 215 - Pass Details

Date: 29 October 2020
Orbit: 1102 x 1106 km, 123.0° (Epoch: 20 November)

Event Time Altitude Azimuth Distance (km) Brightness Sun altitude
Exits shadow 19:57:29 60° 267° (W) 1,250 3.6 -35.5°
Drops below altitude 10° 20:02:54 10° 297° (WNW) 2,967 6.3 -36.3°
Sets 20:05:25 0° 300° (WNW) 3,927 7.1 -36.6°
